ONEWEB-0285 (49075 NORAD) Tracking and Keplerian Element Data

This shows tracking and keplerian element data for the satellite.

Feedback or suggestion? Click here.




ElementValue
Catalog49075
NameONEWEB-0285
Epoch Orbit560
Epoch Day262.16668981
Epoch Year2021
RAAN356.4372
Inclination87.4562
Eccentricity0.001789
Argument of Perigee190.5599
Mean Anonmoly143.279
Mean Motion15.17810734
Decay Rate-0.00863688
L11 49075U 21075A 21262.16668981 -.00863688 00000-0 -46285-1 0 9995
L22 49075 87.4562 356.4372 0017890 190.5599 143.2790 15.17810734 5606

Live tracking and technical data element details for ONEWEB-0285 (NORAD 49075). ONEWEB-0285 can be tracked NOW for your location showing map with azimuth and elevation plus other details from your city location.

Track the satellite on the map from your city or location and see movement details for azimuth, elevation, latitude, longitude, range, height, and movement on the map or in text.







IsCatalogInMostPopularTable: catalog: 49075, numindb: 5
Update: records affected: 1



GetName: 49075 ONEWEB-0285

Hit Count: updated at: Fri, 24 Sep 2021 17:20:49 GMT